Flag for United Kingdom Weather past 2 weeks in Swansea, Wales, United Kingdom

Now
71 °F

Mild.


Feels Like: 76 °F
Forecast: 60 / 73 °F
Wind: 13 mph from Northeast

Location: Mumbles

Current Time: Jul 25, 2014 at 2:50:17 AM

Latest Report: Jul 25, 2014 at 2:00 AM


Visibility: N/A

Pressure: 30.06 "Hg

Humidity: 61%

Dew point: 56 °F

Location of SwanseaLocation

Historic Weather in Swansea — Graph

°F

Swansea temperature yesterday

Maximum temperature yesterday: 75 °F (at 8:00 PM)
Minimum temperature yesterday: 67 °F (at 6:00 AM)
Average temperature yesterday: 72 °F

Past Weeks' High & Low Weather Summary

 TemperatureHumidityPressure
High77 °F (Jul 23, 8:00 PM)99% (Jul 13, 4:00 AM)30.26 "Hg (Jul 13, 4:00 AM)
Low54 °F (Jul 10, 5:00 AM)54% (Jul 23, 6:00 PM)29.77 "Hg (Jul 19, 5:00 PM)
Average65 °F79%30.04 "Hg
* Reported Jul 10 1:00 AM — Jul 25 1:00 AM, Swansea, Weather by CustomWeather, © 2014

Note: Actual official high and low records may vary slightly from our data, if they occured in-between our weather recording intervals... More about our weather records

Advertising

Swansea weather history for previous 24 hours

 ConditionsComfort  
Time TempWeatherWind HumidityBarometerVisibility
1:00 AM
Jul 25
70 °FMild.14 mph64%30.06 "HgN/A
12:00 AM71 °FMild.8 mph69%30.06 "HgN/A
11:00 PM
Jul 24
72 °FMild.9 mph62%30.06 "HgN/A
10:00 PM73 °FMild.9 mph59%30.06 "HgN/A
9:00 PM74 °FMild.7 mph64%30.05 "HgN/A
8:00 PM75 °FMild.1 mph57%30.03 "HgN/A
7:00 PM75 °FMild.3 mph58%30.03 "HgN/A
6:00 PM75 °FMild.5 mph62%30.04 "HgN/A
5:00 PM74 °FMild.7 mph62%30.05 "HgN/A
4:00 PM75 °FMild.7 mph63%30.06 "HgN/A
3:00 PM71 °FMild.10 mph69%30.06 "HgN/A
2:00 PM71 °FMild.9 mph73%30.06 "HgN/A
1:00 PM71 °FMild.10 mph74%30.07 "HgN/A
12:00 PM73 °FMild.9 mph71%30.07 "HgN/A
11:00 AM72 °FMild.7 mph65%30.07 "HgN/A
10:00 AM72 °FMild.3 mph67%30.08 "HgN/A
9:00 AM69 °FMild.5 mph72%30.07 "HgN/A
8:00 AM71 °FMild.8 mph66%30.07 "HgN/A
7:00 AM68 °FMild.9 mph72%30.06 "HgN/A
6:00 AM67 °FMild.15 mph74%30.06 "HgN/A
5:00 AM68 °FMild.14 mph75%30.05 "HgN/A
4:00 AM69 °FMild.14 mph74%30.06 "HgN/A
3:00 AM69 °FMild.8 mph76%30.07 "HgN/A
2:00 AM71 °FMild.6 mph74%30.07 "HgN/A
Weather by CustomWeather, © 2014

See weather overviewHow to use our weather pages